DW5566 Rabat MA current weather conditions

sailwx.info

Wind from 331 at 5 knots gusting 6

Air temperature 23.9° C
Dewpoint 19.2° C

Last reported at 2019-Jul-21 13:00 UTC.
Time now 2019-Jul-21 13:29 UTC

Location: N 33°54' W 006°59'.
View on Google Maps.

See reports from other nearby stations

  
Tides and Currents Weather Stations Pressure Air Temp Water Temp Dewpoint Dewpoint Depression Visibility Wind Speed Wind Dir Waves Ship Positions
date/time (UTC)wind fromknots sea level pressurealtimeterstation pressurevisibilityair tempwater tempwave heightnotes
2019-Jul-21 13:00 331 5 gusting 6 23.9
2019-Jul-21 12:45 321 5 gusting 6 23.9
2019-Jul-21 12:30 304 4 gusting 6 23.9
2019-Jul-21 12:15 327 4 gusting 6 23.9
2019-Jul-21 12:02 317 4 gusting 6 23.9
2019-Jul-21 11:47 321 4 gusting 6 23.3
2019-Jul-21 11:33 316 4 gusting 5 23.3
2019-Jul-21 11:16 329 4 gusting 6 23.3
2019-Jul-21 11:02 300 3 gusting 6 23.3
2019-Jul-21 10:46 314 4 gusting 6 23.3
2019-Jul-21 10:31 312 4 gusting 5 23.3
2019-Jul-21 10:17 294 4 gusting 6 22.8
2019-Jul-21 10:01 293 4 gusting 6 22.8
2019-Jul-21 09:46 288 4 gusting 6 22.8
2019-Jul-21 09:31 289 5 gusting 7 22.8
2019-Jul-21 09:16 276 5 gusting 6 22.8
2019-Jul-21 09:01 284 5 gusting 6 22.2
2019-Jul-21 08:46 286 4 gusting 6 22.2
2019-Jul-21 08:31 286 3 gusting 5 22.2
2019-Jul-21 08:16 288 4 gusting 5 22.2
2019-Jul-21 08:04 276 3 gusting 5 22.2
2019-Jul-21 07:45 266 5 gusting 6 22.2
2019-Jul-21 07:31 269 3 gusting 5 22.2
2019-Jul-21 07:16 284 3 gusting 6 22.2
2019-Jul-21 07:00 274 4 gusting 6 21.7
2019-Jul-21 06:46 269 2 gusting 4 21.7
2019-Jul-21 06:31 263 2 gusting 5 21.7
2019-Jul-21 06:15 271 3 gusting 5 21.7
2019-Jul-21 06:01 261 2 gusting 4 21.7
2019-Jul-21 05:46 264 2 gusting 4 21.7
2019-Jul-21 05:31 253 2 gusting 4 21.7
2019-Jul-21 05:15 259 2 gusting 4 21.7
2019-Jul-21 05:00 268 3 gusting 5 21.7
2019-Jul-21 04:46 263 2 gusting 4 21.7
2019-Jul-21 04:30 269 2 gusting 5 21.7
2019-Jul-21 04:15 271 3 gusting 6 21.7
2019-Jul-21 04:00 254 3 gusting 6 21.7
2019-Jul-21 03:45 259 3 gusting 5 21.7
2019-Jul-21 03:30 266 0 gusting 2 21.7
2019-Jul-21 03:15 278 2 gusting 5 22.2
2019-Jul-21 03:00 282 3 gusting 5 22.2
2019-Jul-21 02:45 247 2 gusting 5 22.2
2019-Jul-21 02:30 264 1 gusting 3 22.2
2019-Jul-21 02:15 262 3 gusting 6 22.2
2019-Jul-21 02:00 266 5 gusting 7 22.2
2019-Jul-21 01:45 268 5 gusting 6 22.8
2019-Jul-21 01:30 269 3 gusting 4 22.2
2019-Jul-21 01:15 276 2 gusting 6 22.2
2019-Jul-21 01:00 250 1 gusting 4 22.2
2019-Jul-21 00:45 221 1 gusting 6 22.2
2019-Jul-21 00:17 258 0 gusting 6 21.7
2019-Jul-21 00:01 259 3 gusting 5 22.2
2019-Jul-20 23:47 262 3 gusting 6 22.2
2019-Jul-20 23:31 264 3 gusting 6 22.2
2019-Jul-20 23:17 261 4 gusting 6 22.2
2019-Jul-20 23:01 252 5 gusting 6 22.2
2019-Jul-20 22:47 262 5 gusting 7 22.2
2019-Jul-20 22:16 261 4 gusting 6 22.2
2019-Jul-20 22:01 215 3 gusting 8 22.2
2019-Jul-20 21:46 252 5 gusting 9 22.2
2019-Jul-20 21:32 256 4 gusting 8 22.2
2019-Jul-20 21:16 254 5 gusting 11 22.2
2019-Jul-20 21:01 231 6 gusting 9 22.2
2019-Jul-20 20:47 256 5 gusting 9 22.2
2019-Jul-20 20:31 264 6 gusting 8 22.2
2019-Jul-20 20:15 262 6 gusting 8 22.2
2019-Jul-20 20:01 259 6 gusting 10 22.2
2019-Jul-20 19:46 273 7 gusting 11 22.8
2019-Jul-20 19:30 278 6 gusting 9 22.8
2019-Jul-20 19:16 255 6 gusting 8 22.8
2019-Jul-20 19:01 257 3 gusting 7 22.8
2019-Jul-20 18:46 250 4 gusting 8 23.3
2019-Jul-20 18:31 259 5 gusting 7 23.3
2019-Jul-20 18:16 252 6 gusting 7 23.3
2019-Jul-20 18:00 283 6 gusting 9 23.3
2019-Jul-20 17:46 269 6 gusting 9 23.3
2019-Jul-20 17:30 267 6 gusting 9 23.3
2019-Jul-20 17:16 269 6 gusting 9 23.3
2019-Jul-20 17:00 274 7 gusting 10 23.9
2019-Jul-20 16:45 257 6 gusting 9 23.9
2019-Jul-20 16:30 288 6 gusting 9 23.9
2019-Jul-20 16:15 262 6 gusting 9 23.9
2019-Jul-20 16:00 268 7 gusting 10 23.9
2019-Jul-20 15:45 269 7 gusting 10 23.9
2019-Jul-20 15:30 269 6 gusting 9 23.9
2019-Jul-20 15:15 276 7 gusting 10 23.9
2019-Jul-20 15:00 274 6 gusting 10 23.9
2019-Jul-20 14:45 265 6 gusting 10 23.9
2019-Jul-20 14:30 275 6 gusting 10 23.9
2019-Jul-20 14:15 272 6 gusting 10 23.9
2019-Jul-20 14:03 283 6 gusting 10 23.9
2019-Jul-20 13:46 285 6 gusting 8 23.9
2019-Jul-20 13:31 283 6 gusting 9 23.9
2019-Jul-20 13:17 292 6 gusting 8 23.9
2019-Jul-20 13:01 270 6 gusting 8 23.3
2019-Jul-20 12:49 276 6 gusting 9 23.3
2019-Jul-20 12:31 274 6 gusting 8 23.3
2019-Jul-20 12:17 257 6 gusting 8 23.3
2019-Jul-20 12:01 290 6 gusting 9 23.3
2019-Jul-20 11:46 276 6 gusting 9 23.3
2019-Jul-20 11:32 271 6 gusting 9 23.3
2019-Jul-20 11:16 293 6 gusting 10 23.3
2019-Jul-20 11:01 278 6 gusting 9 23.3
2019-Jul-20 10:46 284 7 gusting 11 22.8
2019-Jul-20 10:31 280 7 gusting 11 22.8
2019-Jul-20 10:16 283 7 gusting 9 22.8
2019-Jul-20 10:01 284 6 gusting 9 22.2
2019-Jul-20 09:46 281 6 gusting 9 22.2
2019-Jul-20 09:30 269 6 gusting 8 22.2
2019-Jul-20 09:16 278 6 gusting 8 22.2
2019-Jul-20 09:00 278 6 gusting 9 22.2
2019-Jul-20 08:45 278 6 gusting 9 22.2
2019-Jul-20 08:30 281 5 gusting 7 22.2
2019-Jul-20 08:16 267 6 gusting 8 21.7
2019-Jul-20 08:00 262 6 gusting 7 21.7
2019-Jul-20 07:45 280 5 gusting 8 21.7
2019-Jul-20 07:30 253 4 gusting 6 21.7
2019-Jul-20 07:15 262 6 gusting 8 21.7
2019-Jul-20 07:00 257 4 gusting 6 21.7
2019-Jul-20 06:45 264 4 gusting 6 21.7
2019-Jul-20 06:30 288 5 gusting 6 21.7
2019-Jul-20 06:15 291 4 gusting 8 21.7
2019-Jul-20 06:00 262 4 gusting 6 21.7
2019-Jul-20 05:45 254 4 gusting 6 21.7
2019-Jul-20 05:30 268 4 gusting 6 21.7
2019-Jul-20 05:15 245 5 gusting 7 21.7
2019-Jul-20 05:00 265 5 gusting 6 21.7
2019-Jul-20 04:45 253 3 gusting 7 21.7
2019-Jul-20 04:30 252 3 gusting 6 21.7
2019-Jul-20 04:15 273 5 gusting 6 21.7
2019-Jul-20 04:00 258 2 gusting 6 21.7
2019-Jul-20 03:45 271 4 gusting 6 21.7
2019-Jul-20 03:30 253 5 gusting 7 21.7
2019-Jul-20 03:17 248 4 gusting 7 21.7
2019-Jul-20 03:02 260 4 gusting 8 21.7
2019-Jul-20 02:46 257 4 gusting 6 21.7
2019-Jul-20 02:32 238 4 gusting 6 21.7
2019-Jul-20 02:18 271 4 gusting 6 21.7
2019-Jul-20 02:01 259 3 gusting 6 21.7
2019-Jul-20 01:47 247 3 gusting 6 21.7
2019-Jul-20 01:31 236 5 gusting 7 21.7
2019-Jul-20 01:16 250 2 gusting 6 21.7
2019-Jul-20 01:02 260 4 gusting 6 21.7
2019-Jul-20 00:46 254 3 gusting 5 21.7
2019-Jul-20 00:31 267 4 gusting 7 21.7
2019-Jul-20 00:16 260 5 gusting 7 21.7
2019-Jul-20 00:00 279 6 gusting 8 22.2
2019-Jul-19 23:46 254 5 gusting 7 22.2
2019-Jul-19 23:32 260 4 gusting 8 21.7
2019-Jul-19 23:16 257 4 gusting 6 22.2
2019-Jul-19 23:00 245 6 gusting 8 22.2
2019-Jul-19 22:47 250 5 gusting 8 22.2
2019-Jul-19 22:31 253 5 gusting 7 22.2
2019-Jul-19 22:17 266 5 gusting 9 22.2
2019-Jul-19 22:01 288 6 gusting 9 22.2
2019-Jul-19 21:46 257 6 gusting 10 22.2
2019-Jul-19 21:31 268 5 gusting 9 22.2
2019-Jul-19 21:15 248 6 gusting 8 22.2
2019-Jul-19 21:01 256 6 gusting 7 22.2
2019-Jul-19 20:46 276 5 gusting 7 22.2
2019-Jul-19 20:30 262 5 gusting 7 22.2
2019-Jul-19 20:15 273 5 gusting 8 22.8
2019-Jul-19 20:01 264 5 gusting 8 22.8
2019-Jul-19 19:46 250 4 gusting 7 22.8
2019-Jul-19 19:30 250 4 gusting 6 22.8
2019-Jul-19 19:15 254 5 gusting 7 22.8
2019-Jul-19 19:00 262 5 gusting 7 22.8
2019-Jul-19 18:45 252 6 gusting 9 22.8
2019-Jul-19 18:30 278 6 gusting 7 22.8
2019-Jul-19 18:15 261 5 gusting 7 22.8
2019-Jul-19 18:00 264 6 gusting 7 23.3
2019-Jul-19 17:46 274 6 gusting 8 23.3
2019-Jul-19 17:30 267 6 gusting 7 23.3
2019-Jul-19 17:15 271 6 gusting 7 23.9
2019-Jul-19 17:00 262 5 gusting 8 23.9
2019-Jul-19 16:45 262 6 gusting 8 23.9
2019-Jul-19 16:30 265 6 gusting 9 23.9
2019-Jul-19 16:16 294 6 gusting 9 23.9
2019-Jul-19 16:00 272 8 gusting 11 23.9
2019-Jul-19 15:45 269 6 gusting 8 23.9
2019-Jul-19 15:30 270 6 gusting 8 23.3
2019-Jul-19 15:15 295 6 gusting 9 23.3
2019-Jul-19 15:00 268 7 gusting 10 23.3
2019-Jul-19 14:45 266 7 gusting 11 23.9
2019-Jul-19 14:30 279 8 gusting 10 23.9
2019-Jul-19 14:15 271 6 gusting 9 23.9
2019-Jul-19 14:00 279 6 gusting 10 23.9
2019-Jul-19 13:46 285 7 gusting 10 23.3
2019-Jul-19 13:33 266 6 gusting 9 23.3
2019-Jul-19 13:16 282 7 gusting 9 23.3
2019-Jul-19 13:01 276 7 gusting 9 23.3